Location: Paris
(48.6709°N, 2.3750°E)
Time: 13:56:36
(UTC+02:00)

NOAA 18 - Pass Details

Date: 05 July 2022
Orbit: 839 x 860 km, 98.9° (Epoch: 10 August)

Event Time Altitude Azimuth Distance (km) Brightness Sun altitude
Exits shadow 23:49:55 13° 185° (S) 2,301 7.0 -13.3°
Maximum altitude 23:54:48 52° 260° (W) 1,056 5.8 -13.7°
Drops below altitude 10° 00:00:14 10° 336° (NNW) 2,507 9.1 -14.1°
Sets 00:02:42 0° 342° (NNW) 3,449 10.2 -14.3°
